Wind_Speed
27 26 25 25 29 24 18 18 18 22 21 22 18 16 19 14 15 19 12 11 17 19 19 17 15 12 12 12 11 9 10 10 13 16 16 18 18 19 22 22 21 18 20 18 17 23 18 17 16
30 29 27 26 26 27 18 19 23 28 21 23 20 18 19 15 14 15 13 15 17 18 16 15 13 13 13 14 11 9 9 11 15 18 18 17 16 20 22 22 19 22 12 18 18 22 19 17 17
30 31 31 30 27 21 22 17 25 30 30 23 21 20 20 19 15 15 16 17 17 16 14 14 12 13 14 15 12 10 11 11 17 21 19 17 13 16 18 21 17 16 16 13 14 17 20 16 17
30 31 32 32 28 24 21 28 31 39 31 27 22 22 22 22 18 17 18 21 17 13 13 15 14 14 14 14 12 12 12 11 19 23 21 18 16 16 9 16 16 19 21 14 14 15 20 19 18
28 30 32 32 27 27 29 31 37 41 36 30 27 25 24 25 21 19 18 23 24 15 14 14 15 14 14 14 14 12 13 14 22 25 22 18 17 9 8 13 17 20 21 15 15 18 26 24 18
30 30 31 29 24 21 27 36 37 39 37 33 28 28 27 23 23 20 16 17 19 20 18 15 14 16 15 14 14 15 13 14 23 26 23 20 19 17 20 24 25 21 17 23 27 26 28 21 14
29 32 33 31 26 23 21 37 42 41 41 33 29 28 31 29 26 22 22 20 16 22 24 21 17 18 16 15 15 15 13 15 21 21 23 22 22 18 21 23 19 18 18 24 27 30 25 18 19
31 33 35 31 29 28 25 41 39 44 43 39 33 27 28 39 27 25 25 25 22 22 29 28 21 19 17 17 17 15 15 16 18 16 22 22 23 22 20 22 24 24 22 25 31 29 23 22 21
33 36 35 29 29 29 27 38 40 44 44 42 34 31 41 27 27 28 27 25 24 24 21 25 21 19 17 18 18 16 17 19 19 18 22 21 23 20 21 22 24 25 25 26 27 26 25 23 21
35 37 34 31 31 38 41 44 44 46 39 42 34 33 42 32 33 31 30 27 26 26 23 26 24 19 19 19 19 18 17 20 21 21 24 23 25 23 24 25 26 26 27 26 24 24 24 22 18
37 38 36 35 35 38 39 44 46 47 43 37 33 35 40 38 35 34 33 32 28 26 24 29 24 21 20 21 20 18 18 21 20 22 28 25 27 24 27 27 26 26 25 24 24 25 23 19 19
42 41 41 39 40 41 39 39 45 50 45 38 41 40 44 43 35 35 35 35 31 27 24 29 25 23 22 23 21 22 20 22 20 24 25 25 28 26 30 30 29 26 24 24 24 23 21 20 19
44 44 43 43 44 44 44 39 40 44 47 43 44 44 40 39 37 36 38 37 35 30 23 27 25 25 25 24 22 23 23 25 26 30 28 29 25 30 34 33 29 29 27 26 24 21 22 22 21
45 48 49 48 47 49 47 44 42 36 41 44 46 45 42 39 39 40 40 39 38 34 30 28 28 28 28 26 25 26 29 32 29 27 32 38 33 34 37 34 33 30 29 27 25 25 23 22 21
45 51 52 50 52 53 53 50 40 37 43 47 45 46 45 41 41 43 43 40 40 40 38 34 33 32 31 30 29 30 29 25 27 25 23 28 35 37 44 36 35 31 29 29 28 26 25 23 20
43 46 52 52 55 57 58 52 41 42 42 48 46 44 46 44 43 43 46 43 43 46 41 34 33 37 32 33 31 32 32 30 32 28 22 22 34 37 44 40 37 32 30 30 31 28 27 24 20
51 45 46 51 35 56 60 60 53 53 53 52 47 44 44 46 44 43 47 47 44 47 44 37 32 30 30 34 35 34 34 38 38 31 29 28 29 38 42 44 41 34 33 33 32 32 29 24 23
56 50 53 55 48 46 55 67 64 58 55 55 52 46 45 47 48 48 47 49 47 49 46 41 37 36 35 36 39 37 37 38 35 40 35 33 31 34 38 40 39 35 35 33 33 30 27 25 25
55 52 49 52 55 59 61 64 65 62 58 59 57 51 50 45 46 49 50 50 52 50 48 43 43 42 36 36 37 38 36 38 43 39 43 43 40 38 40 44 35 34 35 34 33 30 27 27 27
48 45 45 47 49 55 62 64 64 62 59 59 59 58 53 49 47 50 52 50 54 53 51 49 47 40 41 37 36 41 40 39 41 35 33 39 40 40 38 39 39 38 37 35 32 30 29 29 28
44 39 42 44 46 50 53 61 60 59 59 58 61 58 57 54 51 50 52 55 52 55 54 54 48 45 43 39 41 42 43 43 44 41 45 41 33 37 39 41 41 39 38 36 33 31 32 32 29
43 36 39 39 41 41 37 45 50 49 44 48 59 60 58 58 56 53 53 56 56 54 58 56 51 47 41 43 46 40 40 41 39 39 38 36 34 39 44 40 38 37 36 34 33 34 32 31 30
44 36 33 35 37 37 36 38 40 39 48 55 57 58 60 60 61 57 55 55 58 59 58 58 54 48 45 41 44 44 37 42 43 44 45 43 44 39 36 42 42 40 37 36 36 34 33 33 31
44 39 28 26 30 34 27 28 24 29 38 39 41 39 37 43 53 60 56 57 60 63 59 61 59 54 50 45 41 40 43 41 44 45 45 46 46 39 41 45 45 42 40 39 37 36 34 33 31
43 36 30 15 20 15 17 23 34 45 45 46 48 56 59 63 71 66 59 57 61 66 60 63 62 59 53 49 43 43 43 43 39 44 43 45 46 45 47 48 46 42 41 41 39 37 35 33 31
46 32 25 25 24 24 15 31 38 37 38 41 49 55 64 70 71 74 71 67 64 56 63 63 66 62 54 51 42 38 41 46 47 42 44 45 49 49 48 49 48 45 44 44 43 40 39 37 35
40 31 25 24 22 32 17 27 37 26 37 38 34 49 57 69 70 70 71 70 72 71 63 61 66 64 57 51 45 40 41 45 46 45 44 45 49 51 53 53 53 50 47 46 46 45 44 42 41
28 24 20 16 14 16 18 27 34 38 37 35 35 36 49 64 69 70 67 71 68 72 68 62 67 66 60 53 49 45 47 49 45 45 45 45 46 50 53 56 55 52 49 48 48 47 45 43 42
22 18 23 20 18 17 16 22 19 28 41 39 34 33 37 54 66 69 70 72 69 68 69 64 72 65 63 58 52 51 50 52 48 46 44 45 46 47 51 54 55 54 53 52 51 48 45 43 42
12 16 11 20 14 14 17 24 28 25 25 23 28 41 38 46 57 65 71 72 73 69 68 68 70 68 57 61 56 53 49 51 55 54 52 47 47 49 50 52 55 56 57 56 53 49 46 44 43
Wind_Direction
251 254 254 254 256 262 263 262 268 249 273 257 262 264 267 270 264 260 282 270 255 257 253 248 246 247 248 250 249 249 222 197 200 194 180 181 184 184 186 190 188 177 186 187 182 187 192 192 199
250 256 258 257 256 257 256 264 252 262 242 268 261 264 269 265 264 269 278 262 257 258 251 242 244 245 248 247 244 238 218 200 201 172 171 175 182 180 179 172 181 182 158 175 192 191 194 192 186
253 252 254 255 257 259 249 239 258 252 256 264 265 260 265 266 260 264 266 262 253 260 254 239 241 246 247 244 237 229 213 206 205 171 165 170 175 160 161 157 157 152 172 159 166 184 186 194 193
256 256 255 254 252 253 257 241 239 254 262 259 258 259 260 263 257 258 260 255 242 254 255 239 237 242 245 240 233 221 211 205 187 160 161 161 165 179 161 159 169 179 169 158 167 176 179 173 172
260 259 256 256 251 248 247 248 245 255 256 258 253 253 254 252 253 252 254 252 244 251 259 241 236 241 241 229 228 211 207 209 173 162 162 162 168 196 184 153 159 176 184 220 199 179 170 171 169
264 260 259 258 255 256 256 246 243 251 254 253 249 247 245 249 247 246 236 234 241 232 253 253 239 237 239 221 221 208 198 200 196 167 162 171 165 168 156 155 157 166 186 185 169 178 176 178 172
264 262 257 254 249 248 253 248 244 248 250 251 243 241 243 249 246 241 242 244 253 251 246 258 247 235 230 221 218 217 208 199 175 177 165 168 166 154 150 158 159 173 168 174 177 175 177 181 171
263 261 258 254 250 249 250 245 246 247 248 245 244 241 243 243 242 245 246 250 249 241 243 261 242 232 228 222 216 215 209 196 189 185 172 166 171 168 160 164 171 171 164 160 167 176 182 171 163
261 261 262 260 246 249 254 247 249 245 247 249 244 237 241 250 240 242 245 245 249 246 251 250 237 227 223 225 214 209 213 188 180 177 178 175 174 176 171 168 170 170 168 165 163 162 168 167 166
262 261 262 259 249 243 238 242 243 248 247 249 248 240 245 242 232 236 242 244 244 250 246 247 237 224 224 222 212 210 213 198 193 184 188 194 175 178 179 177 174 174 173 167 167 167 169 170 167
264 260 261 257 254 248 244 241 244 248 245 249 248 239 241 236 232 232 236 242 241 250 246 244 237 229 221 220 210 211 212 219 202 189 197 194 184 187 188 188 177 174 171 169 170 172 174 169 172
265 263 260 257 256 253 247 244 241 246 247 244 246 239 237 241 233 233 235 238 238 245 247 246 240 232 223 220 209 209 213 216 200 206 189 197 198 194 193 191 183 177 175 175 177 177 178 175 177
265 263 260 257 255 254 252 245 245 243 248 244 246 245 243 241 234 230 234 234 236 239 241 244 247 239 229 222 210 209 212 214 208 212 209 205 199 198 194 194 188 183 182 180 182 184 181 183 177
266 265 261 258 256 256 252 247 247 238 250 245 242 245 244 238 233 229 231 232 234 234 233 238 253 237 232 223 213 209 213 204 210 220 214 210 205 201 195 195 191 186 186 184 183 188 187 178 181
267 266 263 260 259 257 257 246 243 245 249 246 241 239 241 237 234 226 229 230 229 233 228 237 246 235 235 223 217 212 214 219 208 215 226 217 213 203 195 199 191 186 190 185 186 191 187 183 188
277 272 264 258 263 261 258 247 240 245 257 250 240 239 239 238 234 229 226 226 225 231 230 240 250 229 232 227 220 217 209 210 211 211 213 214 207 195 196 198 197 193 191 187 189 190 191 191 193
290 284 276 263 259 260 258 250 243 245 249 246 241 240 238 236 234 234 227 226 223 227 230 233 239 236 232 236 224 219 214 214 211 206 205 211 202 192 187 200 201 195 192 191 192 191 194 194 194
292 280 271 267 258 242 248 251 247 242 243 247 242 238 237 234 232 232 230 227 223 224 227 229 234 235 236 237 230 222 218 217 212 209 209 208 213 212 200 190 193 194 192 195 194 197 197 196 195
294 284 271 262 255 254 252 252 249 246 242 244 242 236 235 234 232 233 231 227 226 223 223 224 233 235 230 235 236 228 223 222 223 223 207 217 206 212 215 206 191 195 196 197 199 200 203 200 198
297 283 269 259 255 251 249 248 247 246 243 241 240 238 233 232 233 229 232 228 228 225 219 225 228 234 233 232 236 229 222 221 229 233 211 222 216 220 218 203 191 191 200 199 204 207 206 201 202
301 285 268 264 254 254 254 251 249 246 245 240 241 237 234 232 230 231 230 231 230 227 224 224 226 227 243 228 231 231 225 221 222 224 221 224 225 213 206 195 200 201 198 201 209 209 205 205 206
306 289 275 266 264 257 249 258 243 243 248 248 238 239 235 232 230 230 228 230 228 229 226 222 223 226 234 224 226 227 229 228 224 226 223 233 235 211 194 197 204 206 204 208 211 210 209 211 215
313 298 282 270 268 265 247 259 256 255 251 248 244 241 237 232 231 228 227 227 231 228 225 221 224 222 226 234 230 218 229 226 222 219 219 223 220 211 204 207 206 206 209 209 210 211 214 218 221
315 306 291 274 269 260 257 254 258 237 231 225 219 218 216 221 227 225 224 224 225 230 223 220 223 223 229 234 235 218 223 232 224 223 220 219 223 207 208 212 206 207 209 209 211 213 217 221 223
313 307 293 277 239 258 223 219 232 231 230 224 223 226 227 226 221 214 209 218 223 229 220 218 221 225 227 232 234 214 221 226 228 225 221 218 219 218 215 212 210 211 212 211 214 215 220 223 225
309 306 289 270 234 229 232 211 232 236 227 231 236 230 231 231 224 224 220 218 215 227 217 217 218 224 225 232 231 223 223 225 225 230 224 218 216 218 217 212 213 213 214 213 216 220 225 228 230
301 288 279 272 255 227 246 260 256 245 238 244 245 237 234 233 226 224 224 222 222 220 221 215 217 222 225 227 231 228 230 227 227 224 228 223 218 218 217 213 214 215 215 216 219 222 227 229 232
286 284 258 241 255 224 242 250 231 238 238 238 239 248 240 228 226 222 222 223 224 225 219 209 215 220 222 224 225 228 228 224 223 217 225 223 222 220 218 217 217 218 219 221 224 227 231 235 237
259 242 257 238 242 245 246 281 242 237 244 239 242 249 240 228 221 221 216 220 221 223 222 213 212 215 222 223 224 227 230 223 213 213 221 221 222 220 219 219 221 222 224 226 230 233 235 238 242
241 260 269 233 189 215 245 262 250 243 242 237 264 243 238 229 219 215 214 214 217 219 218 215 213 211 212 222 226 230 227 233 216 218 212 220 220 220 219 221 223 225 228 230 233 236 239 241 244
Height
5811 5812 5814 5815 5817 5818 5821 5823 5827 5823 5820 5819 5821 5821 5821 5819 5818 5816 5815 5814 5813 5813 5812 5812 5811 5812 5811 5812 5812 5810 5809 5807 5808 5810 5811 5813 5815 5818 5820 5824 5826 5829 5832 5835 5837 5840 5843 5845 5848
5805 5807 5808 5809 5811 5813 5819 5821 5823 5816 5816 5816 5818 5818 5818 5817 5815 5812 5813 5813 5812 5811 5810 5810 5810 5810 5810 5811 5810 5809 5808 5807 5807 5809 5810 5812 5814 5818 5819 5822 5825 5827 5829 5834 5837 5839 5842 5845 5847
5799 5800 5802 5803 5806 5809 5813 5821 5818 5810 5807 5812 5814 5815 5815 5813 5813 5812 5812 5811 5810 5809 5808 5809 5808 5808 5809 5809 5809 5807 5807 5805 5805 5808 5810 5813 5814 5816 5817 5820 5822 5827 5832 5835 5837 5838 5842 5844 5846
5793 5794 5796 5796 5802 5806 5807 5807 5805 5801 5804 5807 5810 5811 5811 5809 5809 5809 5809 5808 5808 5807 5807 5806 5807 5807 5808 5807 5807 5806 5806 5805 5804 5808 5811 5813 5815 5815 5817 5820 5823 5826 5833 5835 5837 5838 5841 5845 5847
5787 5788 5789 5791 5796 5799 5800 5799 5798 5796 5798 5802 5805 5807 5806 5804 5805 5805 5805 5806 5806 5806 5805 5805 5805 5805 5806 5806 5806 5805 5804 5805 5803 5806 5811 5813 5815 5815 5817 5820 5823 5828 5831 5833 5837 5839 5842 5846 5848
5781 5783 5783 5787 5791 5795 5795 5792 5790 5790 5792 5795 5799 5801 5801 5801 5800 5802 5802 5803 5804 5803 5804 5803 5803 5804 5804 5804 5804 5804 5804 5804 5804 5806 5810 5813 5815 5816 5818 5822 5825 5828 5830 5831 5835 5839 5843 5846 5848
5775 5775 5777 5780 5785 5787 5789 5784 5782 5783 5784 5789 5793 5796 5795 5796 5797 5798 5800 5800 5800 5801 5801 5801 5801 5801 5802 5801 5802 5802 5803 5804 5805 5803 5808 5812 5815 5817 5820 5823 5826 5828 5829 5830 5833 5839 5843 5846 5849
5768 5767 5769 5774 5779 5780 5780 5774 5777 5775 5777 5780 5786 5792 5792 5783 5793 5794 5796 5797 5797 5797 5798 5799 5799 5799 5799 5799 5800 5800 5801 5803 5805 5805 5807 5811 5815 5817 5820 5822 5825 5827 5829 5832 5835 5839 5843 5846 5848
5761 5760 5762 5768 5769 5771 5772 5769 5767 5767 5771 5772 5780 5785 5778 5787 5788 5790 5791 5793 5794 5793 5794 5796 5796 5795 5796 5797 5798 5798 5800 5802 5804 5806 5808 5810 5814 5817 5820 5822 5825 5828 5830 5833 5836 5838 5843 5846 5848
5754 5753 5757 5758 5759 5759 5759 5759 5759 5758 5765 5766 5773 5778 5772 5780 5781 5784 5786 5789 5789 5790 5791 5792 5794 5792 5793 5795 5795 5796 5798 5801 5802 5804 5807 5810 5812 5816 5820 5822 5825 5828 5831 5834 5838 5840 5844 5846 5849
5745 5746 5747 5749 5749 5749 5750 5752 5753 5752 5756 5761 5764 5768 5767 5770 5775 5778 5781 5783 5785 5785 5788 5789 5790 5791 5790 5792 5793 5795 5798 5799 5794 5803 5805 5808 5811 5815 5819 5822 5825 5828 5832 5835 5838 5841 5844 5847 5849
5734 5737 5737 5740 5739 5739 5741 5743 5745 5744 5751 5753 5752 5755 5758 5762 5769 5773 5775 5777 5780 5781 5783 5786 5788 5789 5788 5789 5792 5794 5796 5796 5798 5800 5798 5807 5808 5812 5817 5821 5823 5827 5831 5834 5838 5841 5844 5846 5849
5725 5726 5727 5729 5728 5729 5730 5735 5735 5738 5740 5745 5745 5747 5752 5757 5762 5765 5767 5771 5774 5777 5779 5782 5785 5786 5786 5787 5789 5791 5793 5795 5797 5798 5801 5802 5806 5810 5813 5818 5822 5825 5829 5833 5838 5841 5844 5845 5848
5715 5714 5716 5717 5718 5717 5718 5724 5725 5737 5731 5734 5735 5738 5744 5749 5753 5757 5760 5764 5768 5771 5774 5777 5780 5782 5784 5784 5787 5788 5789 5790 5793 5795 5795 5798 5802 5807 5811 5816 5820 5823 5827 5832 5836 5839 5842 5844 5848
5704 5701 5702 5705 5706 5704 5705 5710 5720 5728 5719 5719 5725 5728 5734 5740 5744 5748 5753 5756 5761 5764 5766 5772 5774 5777 5780 5781 5783 5786 5786 5785 5790 5793 5792 5797 5800 5802 5808 5814 5818 5821 5825 5830 5834 5836 5840 5843 5846
5689 5688 5687 5696 5692 5691 5691 5698 5713 5713 5706 5708 5716 5720 5725 5732 5737 5740 5744 5748 5753 5757 5762 5765 5769 5771 5775 5778 5780 5783 5785 5786 5789 5791 5791 5794 5796 5799 5803 5809 5815 5819 5823 5827 5830 5834 5838 5841 5844
5678 5673 5674 5678 5681 5676 5674 5683 5693 5695 5696 5698 5708 5712 5716 5722 5729 5733 5736 5740 5744 5749 5754 5759 5763 5765 5769 5773 5776 5778 5781 5782 5776 5787 5789 5792 5796 5797 5800 5805 5811 5816 5821 5824 5829 5832 5836 5839 5841
5658 5659 5659 5660 5666 5659 5657 5663 5672 5681 5685 5688 5695 5702 5706 5711 5718 5723 5728 5733 5736 5739 5745 5751 5756 5759 5762 5767 5770 5773 5776 5778 5779 5783 5782 5787 5792 5796 5799 5801 5808 5813 5818 5822 5826 5830 5833 5836 5839
5644 5638 5638 5642 5642 5639 5644 5645 5655 5665 5672 5677 5683 5691 5695 5702 5708 5713 5718 5723 5727 5731 5737 5744 5748 5753 5756 5761 5767 5771 5774 5775 5775 5770 5781 5782 5785 5791 5796 5799 5804 5811 5816 5820 5824 5827 5830 5833 5836
5630 5622 5621 5619 5625 5622 5626 5629 5638 5647 5658 5663 5669 5676 5684 5690 5696 5702 5708 5713 5718 5723 5729 5734 5741 5745 5749 5754 5760 5764 5766 5769 5770 5773 5775 5777 5780 5787 5791 5794 5801 5808 5813 5818 5821 5824 5827 5829 5833
5616 5609 5605 5605 5607 5608 5615 5616 5625 5636 5640 5650 5654 5664 5671 5678 5685 5690 5697 5702 5708 5714 5719 5725 5732 5736 5741 5745 5751 5755 5759 5761 5763 5768 5776 5770 5777 5780 5787 5792 5798 5803 5808 5813 5816 5820 5822 5825 5830
5604 5598 5593 5594 5593 5598 5603 5597 5610 5619 5625 5632 5641 5649 5659 5665 5671 5678 5684 5689 5696 5702 5708 5715 5722 5727 5732 5735 5741 5747 5755 5759 5764 5767 5771 5772 5774 5779 5783 5788 5794 5800 5804 5809 5811 5815 5819 5823 5826
5591 5587 5583 5583 5583 5585 5593 5591 5603 5610 5616 5623 5633 5637 5644 5650 5655 5663 5670 5678 5683 5687 5695 5704 5712 5719 5724 5727 5733 5739 5747 5752 5756 5759 5763 5767 5770 5773 5779 5784 5790 5795 5799 5804 5807 5812 5817 5819 5823
5583 5575 5574 5573 5574 5573 5587 5588 5598 5596 5583 5589 5592 5596 5600 5608 5626 5644 5656 5662 5667 5671 5683 5693 5700 5708 5715 5720 5724 5732 5740 5744 5748 5753 5759 5762 5766 5763 5772 5780 5786 5791 5795 5799 5803 5808 5812 5815 5819
5575 5568 5563 5568 5570 5572 5574 5577 5560 5567 5571 5575 5581 5587 5592 5600 5611 5613 5624 5644 5653 5657 5672 5683 5690 5698 5707 5711 5715 5723 5731 5737 5741 5747 5753 5757 5761 5763 5769 5776 5782 5787 5791 5794 5799 5803 5807 5810 5814
5564 5560 5557 5555 5557 5554 5558 5561 5555 5558 5562 5564 5570 5577 5583 5591 5606 5616 5623 5632 5637 5648 5658 5670 5680 5687 5698 5704 5709 5714 5722 5729 5734 5740 5745 5750 5755 5759 5765 5771 5776 5780 5784 5788 5791 5797 5800 5805 5808
5551 5549 5548 5546 5548 5550 5553 5548 5546 5547 5552 5556 5559 5563 5569 5577 5591 5605 5617 5624 5630 5635 5647 5662 5671 5679 5687 5697 5702 5708 5714 5721 5727 5733 5738 5743 5747 5751 5757 5762 5767 5772 5776 5781 5784 5789 5793 5797 5800
5535 5537 5538 5539 5541 5543 5544 5541 5538 5541 5541 5544 5548 5550 5554 5562 5575 5587 5603 5612 5621 5628 5636 5651 5659 5668 5677 5686 5693 5701 5706 5712 5717 5724 5730 5735 5740 5744 5749 5754 5760 5765 5768 5773 5777 5782 5786 5790 5794
5530 5528 5527 5529 5532 5534 5535 5527 5529 5531 5533 5536 5538 5540 5543 5548 5558 5570 5585 5595 5607 5616 5630 5638 5647 5657 5667 5676 5685 5690 5695 5697 5706 5713 5720 5726 5731 5736 5742 5748 5753 5759 5762 5765 5769 5775 5778 5782 5786
5520 5518 5519 5520 5525 5526 5526 5522 5520 5524 5526 5527 5527 5529 5533 5537 5544 5554 5567 5580 5593 5605 5618 5630 5639 5648 5650 5668 5675 5681 5685 5689 5693 5704 5711 5716 5722 5728 5733 5739 5744 5749 5754 5757 5762 5767 5770 5774 5777